Location: Lancaster
(34.6980°N, 118.1360°W)
Time: 02:40:38
(UTC-08:00)

STARS - Visible Passes

Search period start: 19 February 2019 00:00
Search period end: 01 March 2019 00:00
Orbit: 625 x 640 km, 98.3° (Epoch: 19 February)

Date Brightness Start Highest point End Pass type
(mag) Time Alt. Az. Time Alt. Az. Time Alt. Az.
19 Feb ? 05:17:57 10° E 05:19:49 13° ENE 05:21:41 10° NE visible
19 Feb ? 18:43:57 10° NNE 18:47:57 34° E 18:51:54 10° SSE visible
19 Feb ? 20:21:05 10° NNW 20:23:57 17° WNW 20:26:49 10° WSW visible
20 Feb ? 05:37:27 10° ESE 05:40:45 21° ENE 05:44:03 10° NNE visible
20 Feb ? 19:04:48 10° NNE 19:09:08 62° E 19:13:26 10° S visible
20 Feb ? 20:44:30 10° WNW 20:44:52 10° WNW 20:45:14 10° WNW visible
21 Feb ? 05:57:44 10° SE 06:01:45 35° ENE 06:05:46 10° N visible
21 Feb ? 19:25:54 10° N 19:30:16 73° WNW 19:34:36 10° SSW visible
22 Feb ? 18:12:32 10° ENE 18:14:53 14° E 18:17:13 10° SE visible
22 Feb ? 19:47:15 10° N 19:51:20 40° WNW 19:55:24 10° SW visible
23 Feb ? 18:32:34 10° NE 18:36:10 25° E 18:39:43 10° SSE visible
23 Feb ? 20:08:52 10° NNW 20:12:20 24° WNW 20:15:48 10° WSW visible
24 Feb ? 05:26:34 10° ESE 05:29:09 15° ENE 05:31:45 10° NNE visible
24 Feb ? 18:53:13 10° NNE 18:57:24 43° E 19:01:31 10° S visible
24 Feb ? 20:31:00 10° NW 20:33:17 14° WNW 20:35:34 10° W visible
25 Feb ? 05:46:28 10° SE 05:50:06 26° ENE 05:53:45 10° NNE visible
25 Feb ? 19:14:11 10° NNE 19:18:33 80° ESE 19:22:53 10° S visible
26 Feb ? 19:35:22 10° N 19:39:39 57° WNW 19:43:54 10° SSW visible
27 Feb ? 18:21:23 10° NE 18:24:21 18° E 18:27:18 10° SE visible
27 Feb ? 19:56:49 10° N 20:00:42 32° WNW 20:04:33 10° SW visible
28 Feb ? 05:16:15 10° E 05:17:34 11° ENE 05:18:52 10° NE visible
28 Feb ? 18:41:44 10° NE 18:45:36 31° E 18:49:27 10° SSE visible
28 Feb ? 20:18:35 10° NNW 20:21:41 19° WNW 20:24:45 10° WSW visible
